Wind_Speed
8 7 5 5 3 4 6 6 8 7 4 5 5 4 4 6 5 3 4 6 7 7 8 7 6 5 4 4 3 4 5 6 6 6 6 6 6 7 9 9 10 10 12 12 12 13 13 13 14
7 6 5 5 3 6 6 11 10 8 6 4 4 4 3 4 3 3 4 6 5 8 7 7 5 4 4 4 4 5 6 7 7 7 7 8 8 9 9 10 12 12 12 13 14 15 16 16 16
8 7 6 5 8 6 4 11 10 8 6 4 3 2 2 2 1 2 4 3 5 6 6 6 6 5 5 5 5 6 6 7 8 8 8 8 9 10 10 11 11 12 12 13 14 15 16 17 17
10 10 9 10 9 8 6 11 10 8 5 3 3 2 2 3 4 3 3 4 6 7 7 5 5 5 5 5 6 6 7 8 7 8 9 9 10 10 11 11 12 13 14 15 16 17 18 18 19
10 11 13 11 12 9 10 11 11 8 6 4 3 4 4 4 3 3 3 5 6 7 6 6 5 4 4 5 6 7 8 8 9 9 10 10 11 12 12 13 14 15 16 18 19 19 20 20 21
12 12 8 13 13 8 12 14 10 9 8 7 5 5 5 5 4 3 5 5 6 7 7 6 5 4 5 6 7 8 9 10 10 10 10 10 11 12 13 14 15 16 17 17 18 19 21 22 23
15 14 12 15 11 10 10 14 12 11 10 9 7 6 6 6 4 5 5 5 5 6 6 6 6 6 6 6 7 8 10 11 12 11 10 11 11 12 14 16 16 15 16 18 20 22 24 25 27
15 16 17 16 13 11 11 12 10 11 12 10 8 4 5 6 6 6 6 6 6 6 6 6 6 6 6 6 7 9 10 11 11 11 11 11 12 14 16 16 15 16 18 19 22 25 26 28 29
16 18 17 18 11 11 10 13 13 13 13 12 10 9 10 10 10 9 8 8 7 7 6 6 7 7 7 7 8 10 11 11 10 11 11 13 14 16 16 15 15 17 20 22 26 28 29 30 31
20 23 19 17 13 13 12 12 14 14 13 12 12 12 12 12 12 11 10 9 8 7 6 6 7 7 8 8 9 10 11 10 10 11 13 14 16 17 16 16 18 20 22 25 28 29 29 29 28
23 26 21 17 15 15 16 15 15 15 15 12 14 15 13 11 11 12 11 11 9 8 7 8 8 9 9 9 10 11 11 10 10 12 14 16 18 17 16 18 21 23 25 28 29 30 28 28 26
26 25 22 21 21 21 19 18 18 19 14 14 16 16 15 15 14 15 14 12 10 10 9 9 10 10 11 11 10 10 11 9 11 13 15 17 18 17 17 20 22 24 27 30 30 30 28 28 28
26 25 24 23 23 23 24 22 23 20 16 19 17 17 17 16 15 16 15 13 11 11 10 9 10 12 12 12 10 10 10 10 12 13 16 18 17 18 19 21 23 26 29 30 29 28 28 30 27
24 25 27 26 24 27 25 24 26 18 15 16 16 15 16 15 17 17 14 13 13 11 10 9 9 11 11 10 9 9 9 10 12 13 16 17 17 19 20 21 24 28 30 29 26 27 26 23 20
28 28 25 24 24 26 27 30 28 20 19 18 17 18 18 18 17 14 17 14 13 12 9 9 10 10 8 9 9 8 9 11 12 14 16 17 18 18 19 21 24 28 28 25 26 25 24 21 18
20 24 26 28 25 26 26 33 20 18 16 17 18 20 18 16 15 17 15 13 13 11 10 9 10 9 8 7 8 7 9 10 11 14 15 16 17 18 19 21 24 26 23 23 24 22 22 17 15
22 18 20 22 26 25 24 28 20 22 22 24 21 19 21 19 16 17 15 12 12 12 12 11 9 8 7 7 7 7 9 10 11 13 15 16 16 17 17 20 23 23 20 22 21 22 20 17 16
24 25 26 27 17 16 23 31 27 23 23 19 22 20 20 20 18 19 17 12 12 13 13 12 10 8 7 6 7 7 8 9 11 13 13 15 16 16 16 19 21 20 18 20 19 20 20 18 18
26 21 22 23 20 23 27 31 25 23 30 26 22 24 22 20 21 20 20 17 15 14 14 12 11 9 7 7 7 7 7 9 10 11 12 13 14 15 15 17 20 17 16 18 18 20 20 18 15
28 27 25 21 17 20 23 33 33 30 30 27 26 26 24 24 23 21 22 21 19 17 16 13 12 10 9 8 7 7 6 8 9 10 11 12 13 14 14 16 18 15 13 15 16 18 17 15 13
30 31 27 24 21 24 30 37 34 31 31 32 31 29 28 27 25 23 22 22 23 20 18 15 14 11 10 9 7 6 6 7 8 9 10 11 12 13 13 14 17 14 12 12 13 15 16 13 11
30 29 24 24 22 11 11 13 23 20 22 29 30 29 27 26 26 24 23 24 24 22 20 17 15 14 12 10 7 6 5 6 7 7 9 10 10 12 11 13 15 13 11 9 10 13 14 12 10
25 24 19 20 21 19 19 13 20 25 30 16 21 24 25 25 25 24 22 22 24 23 20 18 17 16 14 11 8 6 6 6 6 6 8 9 9 11 11 12 14 12 10 7 6 9 11 10 9
22 15 11 13 12 8 18 17 18 24 26 18 22 23 22 24 24 23 23 23 22 21 21 19 18 18 15 12 9 7 6 5 5 5 6 8 7 9 9 10 12 12 8 6 5 4 7 8 8
29 22 4 3 4 7 12 15 28 11 15 21 24 24 24 23 23 24 23 20 19 19 20 20 19 19 16 13 10 8 6 5 4 4 5 7 7 7 8 9 11 11 8 6 5 3 5 8 10
36 30 11 7 6 3 13 14 20 10 21 23 20 22 27 25 26 25 23 21 21 21 21 21 21 20 17 15 11 9 7 5 4 4 5 6 7 7 7 7 10 10 9 6 5 2 5 11 12
31 33 28 8 4 2 9 20 31 30 23 21 21 23 24 29 27 25 24 23 22 22 22 23 23 22 19 16 13 11 8 6 4 4 5 6 6 6 7 7 8 10 10 6 5 2 7 12 16
33 33 17 18 6 8 10 10 17 6 11 28 30 26 26 26 28 27 25 23 23 23 24 25 25 24 21 18 15 12 10 7 5 5 5 6 6 6 6 6 7 9 10 8 5 4 8 15 17
35 30 21 18 21 5 8 16 23 20 18 12 24 26 26 24 26 25 22 21 22 23 23 24 24 23 20 20 17 14 11 8 6 6 6 6 6 6 6 5 5 7 9 8 3 2 9 15 15
39 38 46 25 21 24 18 25 16 10 23 25 24 23 24 26 24 24 23 22 22 21 21 21 23 23 23 22 19 16 13 10 8 7 7 7 6 7 7 5 4 5 7 7 3 3 10 11 12
Wind_Direction
239 239 229 213 217 225 233 213 203 203 222 245 257 225 233 252 241 238 280 305 317 327 335 331 332 333 326 300 301 306 306 312 316 317 305 296 289 290 288 288 287 286 286 285 285 285 283 279 275
222 225 222 221 229 231 221 199 195 205 223 254 249 250 251 254 238 266 302 320 326 332 331 336 333 335 323 319 326 316 318 324 325 324 316 310 306 297 295 293 288 287 285 288 286 282 283 284 281
218 224 225 229 228 224 217 200 197 202 223 249 235 227 234 228 250 279 309 310 321 329 334 334 334 328 326 331 322 319 322 326 331 325 317 316 308 305 303 297 294 295 293 288 286 284 280 276 271
223 227 231 234 237 224 194 193 202 217 247 263 239 233 224 230 240 267 299 303 322 331 334 329 329 326 329 325 320 323 329 333 328 320 320 316 314 309 306 304 302 302 299 295 291 286 282 278 273
227 226 233 243 241 229 210 203 213 226 246 266 253 237 239 246 251 254 295 305 318 327 326 322 324 322 323 324 323 330 333 329 324 321 319 317 314 311 308 308 307 305 301 298 294 291 287 281 275
227 222 237 243 250 236 220 219 225 234 243 261 268 251 246 244 258 254 287 300 314 322 322 323 321 321 326 331 332 333 330 326 320 319 320 319 313 311 312 309 309 306 304 302 298 294 289 285 281
224 226 240 245 254 245 227 223 238 240 238 251 258 254 252 240 221 264 277 285 298 311 315 320 321 327 327 326 330 331 330 327 323 323 321 317 314 315 311 310 308 305 305 303 299 297 292 288 282
228 231 243 248 254 253 236 229 241 239 244 253 259 255 224 219 256 264 275 277 290 298 305 321 322 323 326 323 327 328 329 329 326 321 321 319 318 318 313 310 308 308 307 305 303 298 293 289 284
227 231 241 244 252 255 247 240 245 251 250 254 250 253 256 262 262 262 261 262 275 287 301 317 323 321 319 317 324 327 329 332 326 322 322 323 322 320 318 317 316 313 311 310 305 302 298 294 290
227 235 241 242 249 256 258 249 253 252 251 254 257 261 262 262 257 253 251 251 263 275 290 305 312 312 310 312 320 325 330 332 327 326 326 324 325 323 321 321 319 317 315 312 310 306 304 302 298
236 240 240 244 249 252 254 257 257 255 253 260 262 264 266 261 254 249 246 247 252 265 277 291 301 309 308 308 317 324 331 331 329 327 326 328 328 323 322 322 323 321 320 320 317 315 316 316 310
242 245 247 245 250 254 255 257 262 258 263 257 257 262 264 259 249 246 243 242 247 256 273 286 298 306 310 307 314 322 329 330 332 329 328 330 328 326 327 328 326 327 328 326 325 328 326 319 309
245 248 250 251 250 252 255 257 261 258 263 267 263 259 255 248 243 242 244 248 248 253 268 288 301 311 313 308 310 321 326 331 331 329 330 330 330 330 333 332 332 333 333 333 336 335 329 322 316
244 246 249 248 249 255 254 257 257 255 265 261 261 254 250 241 237 236 240 245 248 257 269 282 299 308 313 308 310 321 324 328 329 330 329 331 333 335 336 336 339 336 337 343 344 343 339 337 335
246 249 250 248 250 257 260 255 254 267 260 258 255 250 246 243 239 236 228 234 245 264 266 278 295 301 309 306 307 316 320 326 328 330 330 335 339 340 340 341 341 340 346 351 353 355 359 357 355
249 252 254 252 252 251 254 257 256 257 255 250 251 246 243 231 223 229 232 230 250 261 261 272 285 295 302 299 304 310 320 322 324 329 333 338 342 343 345 343 345 345 357 358 1 8 11 19 21
246 247 247 253 251 251 247 258 260 254 255 251 248 243 236 233 233 229 226 242 254 253 261 263 274 286 291 293 297 308 316 318 325 331 335 339 344 347 347 347 347 356 3 4 10 20 18 28 46
239 242 246 248 255 258 256 255 252 254 254 249 240 235 233 236 235 228 228 253 248 250 255 261 267 272 273 280 287 302 312 318 324 332 336 340 345 350 347 349 351 4 8 11 21 28 27 32 52
247 255 258 260 261 262 264 261 251 248 249 243 242 235 231 235 236 237 237 256 251 251 253 253 256 256 257 259 277 295 307 310 322 332 336 341 345 351 344 350 356 11 13 17 28 32 37 39 65
247 249 255 259 268 272 268 264 257 250 249 249 240 239 238 237 237 240 243 249 250 245 245 244 245 245 242 251 269 285 296 306 319 332 338 341 346 349 343 351 357 14 20 23 36 39 49 48 56
241 244 249 254 260 274 286 281 260 255 251 245 245 242 240 243 248 246 246 244 244 245 241 235 236 234 230 243 254 271 288 301 315 332 339 341 344 346 342 351 357 11 24 30 43 48 57 69 69
244 248 252 257 262 263 280 288 262 261 257 245 244 245 244 242 242 242 241 237 236 237 234 232 231 225 223 234 243 259 276 291 309 330 339 341 341 344 339 351 358 9 23 37 45 65 69 77 87
239 252 249 247 250 262 257 270 268 264 247 235 241 240 240 240 239 237 233 229 227 229 227 225 225 220 220 228 235 249 265 282 300 325 335 339 337 344 340 346 358 8 15 45 50 78 78 80 95
244 237 236 238 235 246 239 230 264 256 256 242 237 239 238 236 234 232 229 228 228 224 222 222 220 216 219 224 229 239 255 273 294 318 327 333 334 344 340 338 355 3 10 35 59 79 111 105 109
221 208 149 204 198 254 231 214 240 251 262 257 241 236 240 237 232 231 232 231 223 220 220 220 218 215 217 222 224 232 245 260 280 302 316 326 330 342 338 335 352 358 360 25 38 105 147 144 144
204 193 191 208 199 250 199 234 251 255 255 253 245 232 230 233 232 228 224 220 219 218 219 218 217 215 216 219 220 227 232 244 265 292 309 319 330 332 335 335 347 355 350 9 24 96 163 166 162
194 203 218 247 254 288 221 252 258 252 244 247 246 239 232 230 228 224 222 222 221 220 218 217 216 215 215 216 217 222 226 237 259 282 299 312 326 323 331 336 342 351 339 345 14 69 175 174 163
218 213 192 213 216 237 236 254 239 251 242 232 237 231 229 225 223 221 220 221 220 219 219 219 216 213 212 215 217 221 225 236 256 274 291 301 313 314 319 338 333 346 338 328 0 10 165 169 169
196 204 203 210 227 242 257 252 256 249 245 253 241 246 236 228 221 222 218 217 221 222 224 222 218 217 214 216 219 222 227 235 252 267 281 293 300 309 306 323 326 340 335 320 337 45 141 164 172
212 214 204 194 211 222 249 257 253 243 235 232 235 237 234 226 221 219 217 220 225 226 223 219 217 214 215 219 221 223 229 236 248 262 276 284 292 294 295 301 312 327 333 317 276 175 153 159 160
Height
3151 3151 3151 3152 3158 3153 3153 3153 3152 3154 3154 3154 3154 3153 3154 3153 3153 3157 3151 3151 3150 3149 3148 3147 3146 3145 3145 3144 3143 3142 3141 3140 3139 3137 3136 3136 3135 3134 3133 3132 3130 3129 3129 3127 3126 3125 3124 3123 3123
3150 3151 3152 3152 3155 3153 3151 3151 3152 3153 3153 3153 3152 3152 3152 3152 3151 3150 3150 3150 3149 3148 3147 3147 3145 3144 3143 3143 3142 3141 3140 3139 3137 3136 3135 3134 3133 3131 3130 3129 3127 3126 3124 3124 3123 3121 3120 3120 3119
3149 3150 3152 3151 3151 3151 3151 3150 3151 3152 3152 3152 3151 3151 3151 3151 3150 3149 3149 3148 3148 3147 3147 3146 3145 3144 3143 3142 3141 3140 3138 3137 3136 3135 3133 3132 3130 3129 3127 3126 3124 3123 3122 3120 3119 3118 3116 3115 3114
3148 3150 3151 3150 3149 3149 3149 3150 3150 3151 3151 3151 3151 3151 3151 3149 3149 3149 3148 3148 3147 3147 3146 3145 3144 3143 3142 3141 3140 3138 3137 3136 3134 3132 3131 3129 3128 3127 3125 3123 3122 3120 3119 3117 3115 3113 3112 3111 3109
3147 3148 3149 3147 3147 3147 3148 3149 3149 3150 3150 3149 3149 3150 3149 3148 3148 3148 3148 3147 3146 3146 3145 3144 3143 3142 3141 3140 3138 3138 3136 3135 3133 3131 3130 3128 3127 3125 3123 3121 3120 3118 3115 3113 3111 3109 3107 3105 3104
3146 3147 3147 3146 3146 3146 3146 3147 3148 3148 3148 3148 3148 3148 3148 3147 3147 3147 3147 3146 3146 3145 3144 3144 3143 3141 3140 3139 3138 3137 3135 3134 3132 3130 3128 3127 3125 3123 3121 3119 3117 3114 3112 3110 3107 3104 3102 3100 3098
3144 3145 3145 3144 3144 3144 3144 3145 3146 3147 3147 3147 3147 3147 3147 3146 3146 3146 3146 3145 3145 3144 3143 3143 3142 3141 3140 3139 3137 3136 3134 3132 3130 3129 3127 3125 3123 3121 3119 3116 3113 3111 3108 3106 3103 3100 3097 3094 3091
3142 3143 3141 3142 3143 3143 3143 3144 3144 3145 3145 3145 3146 3145 3146 3145 3145 3145 3145 3144 3144 3143 3142 3142 3141 3140 3139 3137 3136 3134 3132 3130 3129 3127 3125 3124 3122 3119 3116 3113 3110 3108 3105 3101 3098 3095 3091 3088 3085
3139 3141 3139 3139 3141 3141 3142 3142 3142 3143 3143 3143 3144 3144 3144 3143 3143 3143 3143 3143 3142 3142 3141 3141 3140 3139 3137 3136 3134 3132 3131 3129 3127 3125 3124 3122 3119 3116 3113 3110 3107 3104 3101 3097 3093 3089 3085 3081 3078
3135 3135 3135 3137 3138 3139 3139 3140 3140 3141 3141 3141 3142 3142 3141 3141 3141 3141 3141 3141 3141 3140 3140 3139 3138 3137 3135 3134 3132 3131 3129 3127 3125 3124 3122 3119 3117 3113 3110 3107 3104 3101 3097 3093 3088 3083 3079 3074 3070
3130 3130 3133 3135 3135 3136 3136 3137 3138 3138 3138 3140 3139 3139 3139 3139 3138 3138 3138 3139 3138 3138 3138 3137 3137 3135 3133 3132 3130 3129 3128 3126 3124 3122 3120 3117 3114 3110 3107 3105 3101 3097 3092 3087 3082 3076 3071 3067 3063
3127 3128 3129 3131 3132 3132 3133 3134 3134 3134 3136 3136 3136 3135 3136 3135 3135 3135 3136 3136 3136 3136 3136 3136 3135 3133 3132 3130 3129 3127 3126 3123 3122 3120 3118 3115 3111 3108 3105 3102 3098 3093 3088 3082 3076 3070 3065 3061 3056
3122 3124 3125 3127 3128 3128 3129 3130 3129 3130 3132 3132 3132 3132 3132 3132 3132 3132 3133 3134 3134 3134 3134 3134 3133 3132 3130 3129 3127 3126 3124 3122 3120 3118 3115 3113 3109 3106 3103 3100 3095 3090 3085 3078 3072 3066 3062 3056 3050
3117 3119 3120 3122 3124 3124 3124 3125 3123 3127 3128 3128 3128 3128 3128 3129 3128 3128 3130 3131 3132 3132 3132 3131 3130 3129 3128 3127 3126 3124 3123 3121 3118 3116 3114 3111 3107 3104 3101 3097 3092 3086 3081 3076 3070 3064 3059 3053 3047
3115 3116 3116 3118 3120 3119 3120 3117 3118 3123 3123 3123 3124 3124 3125 3125 3125 3126 3126 3128 3129 3129 3129 3128 3127 3126 3125 3125 3124 3123 3121 3119 3117 3115 3112 3109 3106 3102 3099 3095 3090 3084 3079 3073 3067 3062 3056 3051 3046
3112 3112 3112 3113 3115 3115 3116 3111 3116 3117 3118 3118 3119 3120 3121 3121 3122 3122 3124 3125 3125 3126 3126 3125 3124 3124 3123 3122 3122 3121 3120 3118 3116 3114 3111 3108 3104 3101 3097 3093 3088 3082 3077 3072 3067 3062 3057 3052 3047
3107 3108 3108 3109 3109 3109 3110 3108 3110 3111 3112 3113 3114 3115 3116 3118 3119 3120 3121 3121 3122 3123 3123 3122 3122 3122 3121 3120 3120 3119 3118 3116 3115 3113 3110 3107 3103 3100 3096 3092 3087 3082 3077 3072 3067 3063 3059 3054 3050
3104 3103 3103 3105 3106 3105 3104 3103 3106 3106 3106 3108 3107 3110 3111 3113 3115 3116 3117 3118 3118 3119 3120 3120 3120 3119 3119 3118 3118 3117 3116 3115 3113 3112 3109 3106 3103 3099 3096 3092 3087 3081 3076 3073 3069 3065 3061 3058 3053
3100 3102 3101 3103 3102 3101 3100 3098 3100 3101 3099 3101 3104 3104 3106 3108 3110 3112 3113 3114 3115 3116 3117 3117 3117 3117 3116 3116 3116 3115 3114 3113 3112 3110 3107 3105 3102 3099 3095 3091 3087 3082 3077 3074 3071 3068 3064 3061 3057
3094 3096 3098 3100 3099 3096 3095 3090 3091 3093 3094 3095 3098 3099 3101 3103 3105 3106 3109 3110 3111 3112 3113 3113 3114 3114 3114 3114 3113 3113 3112 3111 3110 3108 3106 3103 3100 3098 3094 3091 3086 3082 3079 3076 3072 3070 3068 3065 3063
3088 3089 3093 3097 3096 3093 3090 3081 3083 3085 3086 3088 3090 3093 3095 3098 3099 3101 3103 3104 3106 3108 3109 3109 3110 3110 3111 3111 3111 3111 3110 3109 3108 3107 3105 3102 3100 3097 3094 3091 3087 3083 3080 3077 3074 3073 3072 3069 3068
3084 3087 3089 3092 3094 3092 3091 3080 3076 3077 3078 3080 3083 3086 3089 3092 3093 3094 3096 3097 3100 3102 3104 3105 3106 3107 3108 3109 3108 3109 3108 3107 3106 3105 3103 3101 3099 3096 3093 3090 3086 3084 3080 3078 3077 3075 3075 3074 3073
3079 3083 3085 3087 3087 3086 3087 3089 3068 3071 3073 3076 3078 3080 3082 3084 3087 3088 3090 3091 3094 3096 3099 3101 3103 3104 3105 3106 3106 3106 3106 3105 3104 3103 3101 3099 3098 3096 3093 3090 3086 3084 3081 3078 3077 3077 3077 3076 3076
3076 3081 3083 3084 3084 3080 3077 3081 3062 3066 3067 3071 3073 3074 3076 3078 3080 3083 3084 3086 3088 3092 3094 3096 3098 3101 3102 3103 3103 3103 3103 3102 3102 3101 3100 3098 3097 3095 3093 3089 3086 3084 3081 3079 3077 3078 3077 3078 3079
3068 3076 3081 3083 3083 3069 3071 3071 3053 3061 3062 3065 3067 3068 3070 3072 3075 3077 3080 3082 3084 3086 3089 3092 3094 3096 3098 3100 3100 3101 3101 3100 3100 3099 3098 3097 3095 3094 3092 3089 3085 3085 3083 3079 3078 3077 3078 3079 3079
3056 3066 3067 3069 3070 3063 3067 3057 3045 3054 3057 3061 3062 3062 3064 3067 3069 3072 3075 3077 3080 3082 3084 3087 3089 3092 3094 3096 3097 3098 3098 3098 3097 3097 3097 3096 3094 3093 3092 3088 3085 3083 3083 3081 3078 3078 3077 3079 3081
3053 3058 3063 3064 3065 3064 3056 3046 3045 3049 3052 3055 3057 3057 3058 3060 3063 3067 3069 3072 3075 3077 3080 3082 3085 3088 3090 3092 3094 3095 3096 3096 3096 3095 3095 3094 3093 3092 3091 3088 3086 3083 3082 3081 3079 3077 3077 3079 3080
3042 3048 3056 3061 3060 3057 3045 3043 3039 3042 3043 3045 3048 3051 3053 3054 3057 3061 3064 3067 3070 3073 3075 3077 3080 3083 3086 3088 3090 3092 3093 3093 3093 3094 3093 3092 3091 3090 3089 3088 3086 3083 3082 3081 3079 3077 3077 3079 3082
3032 3036 3044 3050 3051 3046 3041 3034 3036 3040 3043 3042 3044 3047 3050 3051 3053 3056 3060 3063 3066 3068 3070 3073 3076 3080 3083 3084 3086 3088 3090 3091 3091 3091 3090 3090 3089 3089 3088 3086 3085 3083 3082 3080 3080 3078 3077 3080 3082
3025 3022 3027 3032 3038 3039 3040 3027 3034 3035 3036 3038 3041 3041 3044 3047 3049 3052 3055 3057 3060 3063 3066 3069 3072 3075 3078 3080 3083 3085 3086 3087 3088 3088 3088 3088 3087 3087 3086 3085 3084 3083 3081 3080 3079 3080 3079 3080 3082